Overview Statistics Trail Chart Weather Telemetry Raw packets
 

This is the latest recevied weather packets stored in our database for station/object SQ9SMC-13. If no packets are shown the sender has not sent any weather packets the latest 10 day(s).

<< 39 40 41 42 43 44 45 >>
Time Temp. Humidity Pressure Rain* Wind** Luminosity Snow
1777425906 -3.89° C 90% 1026 hPa 0 mm - 0 W/m² -
1777425603 -3.33° C 89% 1026.2 hPa 0 mm - 0 W/m² -
1777425303 -3.89° C 89% 1026.1 hPa 0 mm - 0 W/m² -
1777425002 -3.89° C 89% 1026 hPa 0 mm - 0 W/m² -
1777424703 -3.89° C 90% 1026 hPa 0 mm - 0 W/m² -
1777424403 -3.89° C 89% 1026 hPa 0 mm - 0 W/m² -
1777424104 -3.89° C 88% 1025.9 hPa 0 mm - 0 W/m² -
1777423803 -3.33° C 88% 1026 hPa 0 mm - 0 W/m² -
1777423503 -3.33° C 87% 1026.1 hPa 0 mm - 0 W/m² -
1777423205 -3.33° C 86% 1025.8 hPa 0 mm - 0 W/m² -
1777422904 -2.78° C 85% 1026 hPa 0 mm - 0 W/m² -
1777422603 -2.78° C 85% 1025.9 hPa 0 mm - 0 W/m² -
1777422303 -2.78° C 85% 1025.9 hPa 0 mm - 0 W/m² -
1777422004 -2.78° C 85% 1026.1 hPa 0 mm - 0 W/m² -
1777421703 -2.22° C 86% 1026 hPa 0 mm - 0 W/m² -
1777421403 -2.22° C 88% 1025.9 hPa 0 mm - 0 W/m² -
1777421105 -2.78° C 89% 1025.9 hPa 0 mm - 0 W/m² -
1777420803 -3.33° C 90% 1026 hPa 0 mm - 0 W/m² -
1777420505 -3.33° C 90% 1026.1 hPa 0 mm - 0 W/m² -
1777420203 -3.33° C 91% 1025.7 hPa 0 mm - 0 W/m² -
1777419903 -3.33° C 91% 1025.9 hPa 0 mm - 0 W/m² -
1777419606 -3.89° C 91% 1025.8 hPa 0 mm - 0 W/m² -
1777419303 -3.89° C 90% 1025.7 hPa 0 mm - 0 W/m² -
1777419004 -3.33° C 90% 1025.8 hPa 0 mm - 0 W/m² -
1777418703 -3.33° C 90% 1025.7 hPa 0 mm - 0 W/m² -

* Rain latest hour (hover to see other rain measurements)
** Current wind speed in m/s (hover to see current wind gust speed)